Showing default

ESSA 4 (TOS-B), 2657

Orbit data source: Space-Track

ESSA 4 (TOS-B), 2657 is a payload satellite owned by ESSA (US) in SSO that was launched on Thu, 26 Jan 1967 UTC via a THOR DELTA E launch vehicle from the Air Force Western Test Range (AFWTR). Payload-class satellites include a variety of spacecraft equipped with specific instruments for various scientific and technological missions. These include communications satellites like Starlink; space stations such as the ISS; scientific satellites like the Hubble; Earth observation satellites from companies like Planet Labs, Umbra, and HawkEye 360; GPS; miniature CubeSats for education and research; and military/defense satellites.

Loading next visibility...
Identifier
2657, 1967-006A
Orbit
SSO
Country
Flag of USUS
Related business
Manufacturer
RCA/East Windsor
Mission
Non-operational spacecraft
Bus & Motor
TIROS I, Unknown motor
Mass
132 kg wet, 132 kg dry
Launch date (UTC)
1967-01-26 (59 years ago)
Launch vehicle
THOR DELTA E
Launch site
Air Force Western Test Range (AFWTR)
Object type
Payload
Rocket body
Debris
Shape & HBR
Unknown
Radar Cross Section
Medium (>0.1 m² and <1 m²)

Expand to show TLE details & history
Last TLE update: 16 hours ago

TLE from 16 hours ago
0 ESSA 4 (TOS-B)
1 02657U 67006A   25340.48410707 -.00000040  00000-0  46678-4 0  9994
2 02657 102.0848 164.4594 0072922 296.9644  89.0306 12.69887254728083
Epoch: 2025-12-06T11:37Z
TLE epoch observation values (Epoch: 2025-12-06T11:37:06.850Z)
Latitude
26.22459°
Longitude
-91.35425°
Altitude
1,384.753 km
Speed
7.17 km/s
True Right ascension
10h 33m 44s
True Declination
26° 05' 58"
Sunlit
Object was in daylight at epoch
Visualization orbit readout
Latitude
Unknown
Longitude
Unknown
Altitude
Unknown
Speed
Unknown
Apparent Right ascension
Unknown
Apparent Declination
Unknown
Sunlit
N/A
Visualization observer readout
Local Sidereal Time
01:42:25
Azimuth
Unknown
Elevation
Unknown
Doppler factor
Unknown
Orbital elements
Apogee altitude
1,436.513 km
Perigee altitude
1,323.367 km
Semi-major axis
7,758.077 km
Eccentricity
0.00729
Inclination
102.0848°
RAAN
164.4594°
Arg. of periapsis
296.9644°
True anomaly
89.8662°
Mean anomaly
89.0306°
Eccentric anomaly
89.44839°
Mean motion
3.17623 °/min
Orbital period
113.34 mins
BSTAR
0.000046678
Loading maneuver chart data...
Computing Atmospheric mass density...
Loading historical data...
Loading historical data...
Loading historical data...
Loading historical data...
Loading historical data...
Loading historical data...
Loading historical data...
Other satellites on launch #6 in the year 1967 (1967-01-26 UTC)

Documentation

Showing up to 5 results
|